Notices

What's New in latest Release from April 7th, 2021:

- Updated Glossary, including Speed of Maximum Gust, and Total Hourly Precipitation

- Updated national and regional climate services offices contacts and prices information

- Addition of station inventory lists for 1981-2010, 1971-2000, and 1961-1990 Normals.

If you haven't already, please take our survey and provide feedback about our website: https://eccc.sondage-survey.ca/f/LanguageSelection.aspx?s=442ca660-fcf1-47c0-95a9-59707d6fd709

Hourly Data Report for April 09, 2021

WIARTON A
ONTARIO
Current Station Operator: NAVCAN

44°44'39.000" N
81°06'31.000" W
221.90 m
6119499
71633
YVV

Download Data

Hourly Data (April 2021)
Hourly Data Report for April 9, 2021
TIME
LST
Temp Definition
°C
Dew Point Definition
°C
Rel Hum Definition
%
Precip. Amount Definition
mm

Wind Dir Definition
10's deg

Wind Spd Definition
km/h
Visibility Definition
km
Stn Press Definition
kPa
Hmdx Definition


Wind Chill Definition


Weather Definition


00:00 14.1 11.7 85   25 3 24.1 98.27     LegendNANA
01:00 10.4 9.1 91   10 9 24.1 98.24     Mostly Cloudy
02:00 11.7 10.9 95   9 12 24.1 98.20     LegendNANA
03:00 12.0 11.0 94   8 4 16.1 98.18     LegendNANA
04:00 12.1 10.9 92   13 6 16.1 98.20     Rain
05:00 13.8 11.2 84   12 11 19.3 98.21     Rain
06:00 14.0 11.7 86   13 11 16.1 98.24     Rain
07:00 14.8 11.3 79   16 17 19.3 98.28     Mostly Cloudy
08:00 14.9 11.2 78   17 23 24.1 98.31     LegendNANA
09:00 16.1 11.9 76   18 26 24.1 98.35     LegendNANA
10:00 17.3 12.2 72   18 19 24.1 98.36     Mostly Cloudy
11:00 17.8 11.4 66   19 29 24.1 98.37     LegendNANA
12:00 17.2 12.0 71   18 23 24.1 98.38     LegendNANA
13:00 18.9 11.5 62   20 23 24.1 98.39     Mostly Cloudy
14:00 20.2 10.8 54   16 21 24.1 98.34     LegendNANA
15:00 20.9 11.2 53   15 19 24.1 98.29     LegendNANA
16:00 20.6 8.4 45   18 29 24.1 98.25     Mostly Cloudy
17:00 20.8 8.2 44   18 25 24.1 98.23     LegendNANA
18:00 20.5 7.8 43   17 24 24.1 98.21     LegendNANA
19:00 18.5 6.2 44   16 13 24.1 98.20     Mostly Cloudy
20:00 18.3 7.0 47   14 15 24.1 98.21     LegendNANA
21:00 18.2 7.1 48   13 21 24.1 98.17     LegendNANA
22:00 17.4 9.0 57   15 25 24.1 98.15     Cloudy
23:00 16.3 9.2 62   19 14 24.1 98.27     LegendNANA

Notes on Data Quality.

Legend

  • E = Estimated
  • M = Missing
  • NA = Not Available*
  • [empty] = Indicates an unobserved value
Date modified: